User: anonymous   Login
Location: Ladrillo (historical)
(32.8195°N, 117.2231°W)
Time: 08:59:56
(UTC+00:00)
Language:

Cosmos 407 Rocket - Orbit

View from above orbital plane
View from above orbital plane
View from above satellite
View from above satellite

Ground track
Ground track

The orbit data is extracted from the following two-line orbital elements,

1 05175U 71035B   21016.82432740  .00000018  00000-0  14692-4 0  9999
2 05175  74.0501 319.1899 0030627 205.6883 154.2751 14.38006532602934
Epoch (UTC): 16 January 2021 19:47:01
Eccentricity: 0.0030627
inclination: 74.0501°
perigee height: 743 km
apogee height: 787 km
right ascension of ascending node: 319.1899°
argument of perigee: 205.6883°
revolutions per day: 14.38006532
mean anomaly at epoch: 154.2751°
orbit number at epoch: 60293

The dashed part of the orbit path shows where the satellite is in the earth's shadow,  

DLR